Year,Month,Day,Hour,Minute,Value (Times are PST for temperature in C)
2020,03,29,00,00,9.50
2020,03,29,00,01,9.50
2020,03,29,00,02,9.50
2020,03,29,00,03,9.50
2020,03,29,00,04,9.50
2020,03,29,00,05,9.60
2020,03,29,00,06,9.60
2020,03,29,00,07,9.60
2020,03,29,00,08,9.50
2020,03,29,00,09,9.50
2020,03,29,00,10,9.50
2020,03,29,00,11,9.60
2020,03,29,00,12,9.60
2020,03,29,00,13,9.60
2020,03,29,00,14,9.60
2020,03,29,00,15,9.60
2020,03,29,00,16,9.60
2020,03,29,00,17,9.60
2020,03,29,00,18,9.60
2020,03,29,00,19,9.60
2020,03,29,00,20,9.60
2020,03,29,00,21,9.60
2020,03,29,00,22,9.60
2020,03,29,00,23,9.70
2020,03,29,00,24,9.70
2020,03,29,00,25,9.80
2020,03,29,00,26,9.80
2020,03,29,00,27,9.70
2020,03,29,00,28,9.70
2020,03,29,00,29,9.70
2020,03,29,00,30,9.70
2020,03,29,00,31,9.70
2020,03,29,00,32,9.70
2020,03,29,00,33,9.70
2020,03,29,00,34,9.70
2020,03,29,00,35,9.80
2020,03,29,00,36,9.80
2020,03,29,00,37,9.80
2020,03,29,00,38,9.80
2020,03,29,00,39,9.80
2020,03,29,00,40,9.90
2020,03,29,00,41,9.90
2020,03,29,00,42,9.90
2020,03,29,00,43,9.90
2020,03,29,00,44,9.90
2020,03,29,00,45,9.90
2020,03,29,00,46,9.90
2020,03,29,00,47,9.90
2020,03,29,00,48,9.90
2020,03,29,00,49,9.90
2020,03,29,00,50,9.90
2020,03,29,00,51,9.90
2020,03,29,00,52,9.90
2020,03,29,00,53,9.90
2020,03,29,00,54,9.90
2020,03,29,00,55,10.00
2020,03,29,00,56,10.10
2020,03,29,00,57,10.10
2020,03,29,00,58,10.10
2020,03,29,00,59,10.10
2020,03,29,01,00,10.10
2020,03,29,01,01,10.10
2020,03,29,01,02,10.20
2020,03,29,01,03,10.20
2020,03,29,01,04,10.20
2020,03,29,01,05,10.20
2020,03,29,01,06,10.10
2020,03,29,01,07,10.10
2020,03,29,01,08,10.10
2020,03,29,01,09,10.10
2020,03,29,01,10,10.10
2020,03,29,01,11,10.10
2020,03,29,01,12,10.10
2020,03,29,01,13,10.10
2020,03,29,01,14,10.10
2020,03,29,01,15,10.10
2020,03,29,01,16,10.20
2020,03,29,01,17,10.20
2020,03,29,01,18,10.20
2020,03,29,01,19,10.10
2020,03,29,01,20,10.10
2020,03,29,01,21,10.20
2020,03,29,01,22,10.30
2020,03,29,01,23,10.30
2020,03,29,01,24,10.40
2020,03,29,01,25,10.40
2020,03,29,01,26,10.40
2020,03,29,01,27,10.50
2020,03,29,01,28,10.60
2020,03,29,01,29,10.60
2020,03,29,01,30,10.60
2020,03,29,01,31,10.60
2020,03,29,01,32,10.60
2020,03,29,01,33,10.50
2020,03,29,01,34,10.50
2020,03,29,01,35,10.40
2020,03,29,01,36,10.40
2020,03,29,01,37,10.40
2020,03,29,01,38,10.40
2020,03,29,01,39,10.40
2020,03,29,01,40,10.40
2020,03,29,01,41,10.40
2020,03,29,01,42,10.40
2020,03,29,01,43,10.40
2020,03,29,01,44,10.40
2020,03,29,01,45,10.40
2020,03,29,01,46,10.40
2020,03,29,01,47,10.40
2020,03,29,01,48,10.40
2020,03,29,01,49,10.40
2020,03,29,01,50,10.40
2020,03,29,01,51,10.40
2020,03,29,01,52,10.50
2020,03,29,01,53,10.60
2020,03,29,01,54,10.60
2020,03,29,01,55,10.60
2020,03,29,01,56,10.70
2020,03,29,01,57,10.80
2020,03,29,01,58,10.90
2020,03,29,01,59,10.90
2020,03,29,02,00,10.90
2020,03,29,02,01,11.10
2020,03,29,02,02,11.10
2020,03,29,02,03,11.10
2020,03,29,02,04,11.10
2020,03,29,02,05,11.20
2020,03,29,02,06,11.20
2020,03,29,02,07,11.20
2020,03,29,02,08,11.10
2020,03,29,02,09,10.90
2020,03,29,02,10,10.90
2020,03,29,02,11,10.90
2020,03,29,02,12,10.90
2020,03,29,02,13,10.90
2020,03,29,02,14,10.90
2020,03,29,02,15,10.90
2020,03,29,02,16,10.90
2020,03,29,02,17,10.90
2020,03,29,02,18,10.90
2020,03,29,02,19,10.90
2020,03,29,02,20,10.90
2020,03,29,02,21,10.90
2020,03,29,02,22,10.80
2020,03,29,02,23,10.70
2020,03,29,02,24,10.70
2020,03,29,02,25,10.60
2020,03,29,02,26,10.50
2020,03,29,02,27,10.40
2020,03,29,02,28,10.40
2020,03,29,02,29,10.50
2020,03,29,02,30,10.60
2020,03,29,02,31,10.60
2020,03,29,02,32,10.60
2020,03,29,02,33,10.60
2020,03,29,02,34,10.60
2020,03,29,02,35,10.60
2020,03,29,02,36,10.60
2020,03,29,02,37,10.60
2020,03,29,02,38,10.60
2020,03,29,02,39,10.60
2020,03,29,02,40,10.60
2020,03,29,02,41,10.70
2020,03,29,02,42,10.70
2020,03,29,02,43,10.80
2020,03,29,02,44,10.80
2020,03,29,02,45,10.90
2020,03,29,02,46,10.90
2020,03,29,02,47,10.90
2020,03,29,02,48,10.90
2020,03,29,02,49,10.90
2020,03,29,02,50,10.90
2020,03,29,02,51,10.90
2020,03,29,02,52,10.90
2020,03,29,02,53,10.90
2020,03,29,02,54,10.90
2020,03,29,02,55,11.10
2020,03,29,02,56,11.10
2020,03,29,02,57,11.20
2020,03,29,02,58,11.20
2020,03,29,02,59,11.30
2020,03,29,03,00,11.20
2020,03,29,03,01,11.20
2020,03,29,03,02,11.20
2020,03,29,03,03,11.30
2020,03,29,03,04,11.30
2020,03,29,03,05,11.30
2020,03,29,03,06,11.30
2020,03,29,03,07,11.20
2020,03,29,03,08,11.20
2020,03,29,03,09,11.20
2020,03,29,03,10,11.20
2020,03,29,03,11,11.30
2020,03,29,03,12,11.30
2020,03,29,03,13,11.30
2020,03,29,03,14,11.30
2020,03,29,03,15,11.40
2020,03,29,03,16,11.40
2020,03,29,03,17,11.40
2020,03,29,03,18,11.40
2020,03,29,03,19,11.40
2020,03,29,03,20,11.40
2020,03,29,03,21,11.40
2020,03,29,03,22,11.40
2020,03,29,03,23,11.40
2020,03,29,03,24,11.50
2020,03,29,03,25,11.60
2020,03,29,03,26,11.60
2020,03,29,03,27,11.50
2020,03,29,03,28,11.40
2020,03,29,03,29,11.40
2020,03,29,03,30,11.40
2020,03,29,03,31,11.60
2020,03,29,03,32,11.60
2020,03,29,03,33,11.60
2020,03,29,03,34,11.60
2020,03,29,03,35,11.50
2020,03,29,03,36,11.40
2020,03,29,03,37,11.40
2020,03,29,03,38,11.40
2020,03,29,03,39,11.40
2020,03,29,03,40,11.30
2020,03,29,03,41,11.30
2020,03,29,03,42,11.30
2020,03,29,03,43,11.20
2020,03,29,03,44,11.20
2020,03,29,03,45,11.20
2020,03,29,03,46,11.20
2020,03,29,03,47,11.30
2020,03,29,03,48,11.40
2020,03,29,03,49,11.40
2020,03,29,03,50,11.40
2020,03,29,03,51,11.40
2020,03,29,03,52,11.40
2020,03,29,03,53,11.50
2020,03,29,03,54,11.60
2020,03,29,03,55,11.70
2020,03,29,03,56,11.70
2020,03,29,03,57,11.80
2020,03,29,03,58,11.80
2020,03,29,03,59,11.70
2020,03,29,04,00,11.60
2020,03,29,04,01,11.60
2020,03,29,04,02,11.60
2020,03,29,04,03,11.60
2020,03,29,04,04,11.60
2020,03,29,04,05,11.60
2020,03,29,04,06,11.40
2020,03,29,04,07,11.30
2020,03,29,04,08,11.20
2020,03,29,04,09,11.10
2020,03,29,04,10,11.10
2020,03,29,04,11,11.00
2020,03,29,04,12,10.90
2020,03,29,04,13,10.90
2020,03,29,04,14,10.90
2020,03,29,04,15,10.90
2020,03,29,04,16,11.00
2020,03,29,04,17,11.10
2020,03,29,04,18,11.10
2020,03,29,04,19,11.10
2020,03,29,04,20,11.10
2020,03,29,04,21,11.10
2020,03,29,04,22,11.10
2020,03,29,04,23,11.20
2020,03,29,04,24,11.30
2020,03,29,04,25,11.30
2020,03,29,04,26,11.30
2020,03,29,04,27,11.40
2020,03,29,04,28,11.40
2020,03,29,04,29,11.40
2020,03,29,04,30,11.40
2020,03,29,04,31,11.40
2020,03,29,04,32,11.40
2020,03,29,04,33,11.40
2020,03,29,04,34,11.30
2020,03,29,04,35,11.30
2020,03,29,04,36,11.20
2020,03,29,04,37,11.20
2020,03,29,04,38,11.20
2020,03,29,04,39,11.30
2020,03,29,04,40,11.30
2020,03,29,04,41,11.40
2020,03,29,04,42,11.40
2020,03,29,04,43,11.40
2020,03,29,04,44,11.40
2020,03,29,04,45,11.40
2020,03,29,04,46,11.40
2020,03,29,04,47,11.40
2020,03,29,04,48,11.40
2020,03,29,04,49,11.40
2020,03,29,04,50,11.40
2020,03,29,04,51,11.40
2020,03,29,04,52,11.50
2020,03,29,04,53,11.60
2020,03,29,04,54,11.60
2020,03,29,04,55,11.60
2020,03,29,04,56,11.70
2020,03,29,04,57,11.80
2020,03,29,04,58,11.80
2020,03,29,04,59,11.90
2020,03,29,05,00,11.90
2020,03,29,05,01,11.80
2020,03,29,05,02,11.80
2020,03,29,05,03,11.80
2020,03,29,05,04,11.80
2020,03,29,05,05,11.80
2020,03,29,05,06,11.80
2020,03,29,05,07,11.80
2020,03,29,05,08,11.80
2020,03,29,05,09,11.70
2020,03,29,05,10,11.70
2020,03,29,05,11,11.70
2020,03,29,05,12,11.60
2020,03,29,05,13,11.60
2020,03,29,05,14,11.60
2020,03,29,05,15,11.60
2020,03,29,05,16,11.60
2020,03,29,05,17,11.60
2020,03,29,05,18,11.60
2020,03,29,05,19,11.60
2020,03,29,05,20,11.60
2020,03,29,05,21,11.60
2020,03,29,05,22,11.60
2020,03,29,05,23,11.60
2020,03,29,05,24,11.60
2020,03,29,05,25,11.60
2020,03,29,05,26,11.60
2020,03,29,05,27,11.60
2020,03,29,05,28,11.60
2020,03,29,05,29,11.60
2020,03,29,05,30,11.60
2020,03,29,05,31,11.60
2020,03,29,05,32,11.60
2020,03,29,05,33,11.70
2020,03,29,05,34,11.70
2020,03,29,05,35,11.70
2020,03,29,05,36,11.70
2020,03,29,05,37,11.60
2020,03,29,05,38,11.60
2020,03,29,05,39,11.60
2020,03,29,05,40,11.60
2020,03,29,05,41,11.60
2020,03,29,05,42,11.60
2020,03,29,05,43,11.50
2020,03,29,05,44,11.40
2020,03,29,05,45,11.50
2020,03,29,05,46,11.50
2020,03,29,05,47,11.60
2020,03,29,05,48,11.60
2020,03,29,05,49,11.60
2020,03,29,05,50,11.60
2020,03,29,05,51,11.60
2020,03,29,05,52,11.60
2020,03,29,05,53,11.60
2020,03,29,05,54,11.60
2020,03,29,05,55,11.50
2020,03,29,05,56,11.40
2020,03,29,05,57,11.40
2020,03,29,05,58,11.40
2020,03,29,05,59,11.30
2020,03,29,06,00,11.20
2020,03,29,06,01,11.10
2020,03,29,06,02,11.10
2020,03,29,06,03,10.90
2020,03,29,06,04,10.90
2020,03,29,06,05,10.80
2020,03,29,06,06,10.70
2020,03,29,06,07,10.70
2020,03,29,06,08,10.60
2020,03,29,06,09,10.60
2020,03,29,06,10,10.50
2020,03,29,06,11,10.40
2020,03,29,06,12,10.40
2020,03,29,06,13,10.40
2020,03,29,06,14,10.40
2020,03,29,06,15,10.30
2020,03,29,06,16,10.30
2020,03,29,06,17,10.30
2020,03,29,06,18,10.30
2020,03,29,06,19,10.30
2020,03,29,06,20,10.20
2020,03,29,06,21,10.20
2020,03,29,06,22,10.20
2020,03,29,06,23,10.20
2020,03,29,06,24,10.20
2020,03,29,06,25,10.20
2020,03,29,06,26,10.20
2020,03,29,06,27,10.10
2020,03,29,06,28,10.10
2020,03,29,06,29,10.10
2020,03,29,06,30,10.10
2020,03,29,06,31,10.10
2020,03,29,06,32,10.10
2020,03,29,06,33,10.10
2020,03,29,06,34,10.10
2020,03,29,06,35,10.10
2020,03,29,06,36,10.10
2020,03,29,06,37,10.20
2020,03,29,06,38,10.20
2020,03,29,06,39,10.20
2020,03,29,06,40,10.20
2020,03,29,06,41,10.20
2020,03,29,06,42,10.20
2020,03,29,06,43,10.20
2020,03,29,06,44,10.30
2020,03,29,06,45,10.30
2020,03,29,06,46,10.30
2020,03,29,06,47,10.30
2020,03,29,06,48,10.30
2020,03,29,06,49,10.30
2020,03,29,06,50,10.30
2020,03,29,06,51,10.30
2020,03,29,06,52,10.30
2020,03,29,06,53,10.40
2020,03,29,06,54,10.40
2020,03,29,06,55,10.40
2020,03,29,06,56,10.40
2020,03,29,06,57,10.40
2020,03,29,06,58,10.40
2020,03,29,06,59,10.30
2020,03,29,07,00,10.30
2020,03,29,07,01,10.30
2020,03,29,07,02,10.30
2020,03,29,07,03,10.30
2020,03,29,07,04,10.30
2020,03,29,07,05,10.30
2020,03,29,07,06,10.20
2020,03,29,07,07,10.20
2020,03,29,07,08,10.20
2020,03,29,07,09,10.20
2020,03,29,07,10,10.20
2020,03,29,07,11,10.20
2020,03,29,07,12,10.20
2020,03,29,07,13,10.20
2020,03,29,07,14,10.20
2020,03,29,07,15,10.20
2020,03,29,07,16,10.20
2020,03,29,07,17,10.20
2020,03,29,07,18,10.20
2020,03,29,07,19,10.20
2020,03,29,07,20,10.30
2020,03,29,07,21,10.30
2020,03,29,07,22,10.30
2020,03,29,07,23,10.40
2020,03,29,07,24,10.40
2020,03,29,07,25,10.40
2020,03,29,07,26,10.40
2020,03,29,07,27,10.40
2020,03,29,07,28,10.40
2020,03,29,07,29,10.30
2020,03,29,07,30,10.30
2020,03,29,07,31,10.20
2020,03,29,07,32,10.20
2020,03,29,07,33,10.20
2020,03,29,07,34,10.20
2020,03,29,07,35,10.20
2020,03,29,07,36,10.20
2020,03,29,07,37,10.20
2020,03,29,07,38,10.20
2020,03,29,07,39,10.20
2020,03,29,07,40,10.20
2020,03,29,07,41,10.20
2020,03,29,07,42,10.20
2020,03,29,07,43,10.20
2020,03,29,07,44,10.20
2020,03,29,07,45,10.10
2020,03,29,07,46,10.10
2020,03,29,07,47,10.10
2020,03,29,07,48,10.10
2020,03,29,07,49,10.10
2020,03,29,07,50,10.10
2020,03,29,07,51,10.10
2020,03,29,07,52,10.10
2020,03,29,07,53,10.10
2020,03,29,07,54,10.10
2020,03,29,07,55,10.10
2020,03,29,07,56,10.10
2020,03,29,07,57,10.10
2020,03,29,07,58,10.10
2020,03,29,07,59,10.10
2020,03,29,08,00,10.10
2020,03,29,08,01,10.10
2020,03,29,08,02,10.10
2020,03,29,08,03,10.10
2020,03,29,08,04,10.10
2020,03,29,08,05,10.00
2020,03,29,08,06,9.90
2020,03,29,08,07,9.90
2020,03,29,08,08,9.90
2020,03,29,08,09,9.90
2020,03,29,08,10,9.90
2020,03,29,08,11,9.90
2020,03,29,08,12,9.90
2020,03,29,08,13,10.00
2020,03,29,08,14,10.10
2020,03,29,08,15,10.10
2020,03,29,08,16,10.10
2020,03,29,08,17,10.10
2020,03,29,08,18,10.10
2020,03,29,08,19,10.10
2020,03,29,08,20,10.10
2020,03,29,08,21,10.10
2020,03,29,08,22,10.10
2020,03,29,08,23,10.10
2020,03,29,08,24,10.10
2020,03,29,08,25,10.20
2020,03,29,08,26,10.20
2020,03,29,08,27,10.20
2020,03,29,08,28,10.20
2020,03,29,08,29,10.20
2020,03,29,08,30,10.20
2020,03,29,08,31,10.10
2020,03,29,08,32,10.10
2020,03,29,08,33,10.10
2020,03,29,08,34,9.90
2020,03,29,08,35,9.90
2020,03,29,08,36,9.90
2020,03,29,08,37,9.90
2020,03,29,08,38,9.90
2020,03,29,08,39,9.90
2020,03,29,08,40,9.90
2020,03,29,08,41,9.90
2020,03,29,08,42,9.90
2020,03,29,08,43,9.90
2020,03,29,08,44,9.90
2020,03,29,08,45,9.90
2020,03,29,08,46,9.90
2020,03,29,08,47,9.90
2020,03,29,08,48,9.90
2020,03,29,08,49,9.90
2020,03,29,08,50,9.90
2020,03,29,08,51,9.90
2020,03,29,08,52,9.90
2020,03,29,08,53,9.90
2020,03,29,08,54,9.90
2020,03,29,08,55,9.90
2020,03,29,08,56,9.90
2020,03,29,08,57,9.80
2020,03,29,08,58,9.80
2020,03,29,08,59,9.80
2020,03,29,09,00,9.80
2020,03,29,09,01,9.70
2020,03,29,09,02,9.70
2020,03,29,09,03,9.70
2020,03,29,09,04,9.70
2020,03,29,09,05,9.70
2020,03,29,09,06,9.70
2020,03,29,09,07,9.70
2020,03,29,09,08,9.70
2020,03,29,09,09,9.70
2020,03,29,09,10,9.70
2020,03,29,09,11,9.60
2020,03,29,09,12,9.60
2020,03,29,09,13,9.60
2020,03,29,09,14,9.60
2020,03,29,09,15,9.60
2020,03,29,09,16,9.60
2020,03,29,09,17,9.60
2020,03,29,09,18,9.60
2020,03,29,09,19,9.60
2020,03,29,09,20,9.50
2020,03,29,09,21,9.50
2020,03,29,09,22,9.50
2020,03,29,09,23,9.50
2020,03,29,09,24,9.50
2020,03,29,09,25,9.40
2020,03,29,09,26,9.40
2020,03,29,09,27,9.40
2020,03,29,09,28,9.30
2020,03,29,09,29,9.30
2020,03,29,09,30,9.30
2020,03,29,09,31,9.30
2020,03,29,09,32,9.20
2020,03,29,09,33,9.20
2020,03,29,09,34,9.20
2020,03,29,09,35,9.20
2020,03,29,09,36,9.20
2020,03,29,09,37,9.20
2020,03,29,09,38,9.10
2020,03,29,09,39,9.10
2020,03,29,09,40,9.00
2020,03,29,09,41,9.00
2020,03,29,09,42,8.90
2020,03,29,09,43,8.90
2020,03,29,09,44,8.90
2020,03,29,09,45,8.80
2020,03,29,09,46,8.80
2020,03,29,09,47,8.80
2020,03,29,09,48,8.70
2020,03,29,09,49,8.70
2020,03,29,09,50,8.70
2020,03,29,09,51,8.70
2020,03,29,09,52,8.60
2020,03,29,09,53,8.60
2020,03,29,09,54,8.60
2020,03,29,09,55,8.50
2020,03,29,09,56,8.50
2020,03,29,09,57,8.40
2020,03,29,09,58,8.40
2020,03,29,09,59,8.40
2020,03,29,10,00,8.30
2020,03,29,10,01,8.30
2020,03,29,10,02,8.30
2020,03,29,10,03,8.20
2020,03,29,10,04,8.20
2020,03,29,10,05,8.20
2020,03,29,10,06,8.20
2020,03,29,10,07,8.10
2020,03,29,10,08,8.10
2020,03,29,10,09,8.00
2020,03,29,10,10,8.00
2020,03,29,10,11,8.00
2020,03,29,10,12,7.90
2020,03,29,10,13,7.90
2020,03,29,10,14,7.90
2020,03,29,10,15,7.90
2020,03,29,10,16,7.80
2020,03,29,10,17,7.80
2020,03,29,10,18,7.80
2020,03,29,10,19,7.80
2020,03,29,10,20,7.70
2020,03,29,10,21,7.70
2020,03,29,10,22,7.60
2020,03,29,10,23,7.50
2020,03,29,10,24,7.50
2020,03,29,10,25,7.40
2020,03,29,10,26,7.30
2020,03,29,10,27,7.30
2020,03,29,10,28,7.20
2020,03,29,10,29,7.10
2020,03,29,10,30,7.10
2020,03,29,10,31,7.10
2020,03,29,10,32,7.00
2020,03,29,10,33,7.00
2020,03,29,10,34,6.90
2020,03,29,10,35,6.90
2020,03,29,10,36,6.90
2020,03,29,10,37,6.90
2020,03,29,10,38,6.90
2020,03,29,10,39,6.90
2020,03,29,10,40,6.90
2020,03,29,10,41,6.80
2020,03,29,10,42,6.80
2020,03,29,10,43,6.80
2020,03,29,10,44,6.80
2020,03,29,10,45,6.80
2020,03,29,10,46,6.80
2020,03,29,10,47,6.80
2020,03,29,10,48,6.80
2020,03,29,10,49,6.80
2020,03,29,10,50,6.80
2020,03,29,10,51,6.80
2020,03,29,10,52,6.70
2020,03,29,10,53,6.70
2020,03,29,10,54,6.70
2020,03,29,10,55,6.70
2020,03,29,10,56,6.70
2020,03,29,10,57,6.70
2020,03,29,10,58,6.60
2020,03,29,10,59,6.60
2020,03,29,11,00,6.60
2020,03,29,11,01,6.60
2020,03,29,11,02,6.60
2020,03,29,11,03,6.60
2020,03,29,11,04,6.60
2020,03,29,11,05,6.50
2020,03,29,11,06,6.40
2020,03,29,11,07,6.40
2020,03,29,11,08,6.40
2020,03,29,11,09,6.40
2020,03,29,11,10,6.40
2020,03,29,11,11,6.40
2020,03,29,11,12,6.40
2020,03,29,11,13,6.30
2020,03,29,11,14,6.30
2020,03,29,11,15,6.30
2020,03,29,11,16,6.30
2020,03,29,11,17,6.30
2020,03,29,11,18,6.30
2020,03,29,11,19,6.30
2020,03,29,11,20,6.30
2020,03,29,11,21,6.30
2020,03,29,11,22,6.30
2020,03,29,11,23,6.30
2020,03,29,11,24,6.30
2020,03,29,11,25,6.30
2020,03,29,11,26,6.30
2020,03,29,11,27,6.30
2020,03,29,11,28,6.30
2020,03,29,11,29,6.30
2020,03,29,11,30,6.30
2020,03,29,11,31,6.30
2020,03,29,11,32,6.30
2020,03,29,11,33,6.40
2020,03,29,11,34,6.40
2020,03,29,11,35,6.40
2020,03,29,11,36,6.40
2020,03,29,11,37,6.40
2020,03,29,11,38,6.40
2020,03,29,11,39,6.40
2020,03,29,11,40,6.40
2020,03,29,11,41,6.40
2020,03,29,11,42,6.40
2020,03,29,11,43,6.40
2020,03,29,11,44,6.40
2020,03,29,11,45,6.40
2020,03,29,11,46,6.50
2020,03,29,11,47,6.60
2020,03,29,11,48,6.60
2020,03,29,11,49,6.60
2020,03,29,11,50,6.60
2020,03,29,11,51,6.60
2020,03,29,11,52,6.60
2020,03,29,11,53,6.60
2020,03,29,11,54,6.60
2020,03,29,11,55,6.60
2020,03,29,11,56,6.60
2020,03,29,11,57,6.60
2020,03,29,11,58,6.60
2020,03,29,11,59,6.60
2020,03,29,12,00,6.60
2020,03,29,12,01,6.60
2020,03,29,12,02,6.60
2020,03,29,12,03,6.60
2020,03,29,12,04,6.60
2020,03,29,12,05,6.60
2020,03,29,12,06,6.60
2020,03,29,12,07,6.70
2020,03,29,12,08,6.70
2020,03,29,12,09,6.70
2020,03,29,12,10,6.70
2020,03,29,12,11,6.70
2020,03,29,12,12,6.70
2020,03,29,12,13,6.70
2020,03,29,12,14,6.70
2020,03,29,12,15,6.70
2020,03,29,12,16,6.70
2020,03,29,12,17,6.70
2020,03,29,12,18,6.80
2020,03,29,12,19,6.80
2020,03,29,12,20,6.80
2020,03,29,12,21,6.80
2020,03,29,12,22,6.80
2020,03,29,12,23,6.90
2020,03,29,12,24,6.90
2020,03,29,12,25,7.00
2020,03,29,12,26,7.00
2020,03,29,12,27,7.00
2020,03,29,12,28,7.00
2020,03,29,12,29,7.00
2020,03,29,12,30,7.10
2020,03,29,12,31,7.10
2020,03,29,12,32,7.10
2020,03,29,12,33,7.10
2020,03,29,12,34,7.10
2020,03,29,12,35,7.10
2020,03,29,12,36,7.10
2020,03,29,12,37,7.10
2020,03,29,12,38,7.10
2020,03,29,12,39,7.10
2020,03,29,12,40,7.20
2020,03,29,12,41,7.20
2020,03,29,12,42,7.20
2020,03,29,12,43,7.30
2020,03,29,12,44,7.30
2020,03,29,12,45,7.30
2020,03,29,12,46,7.30
2020,03,29,12,47,7.30
2020,03,29,12,48,7.30
2020,03,29,12,49,7.30
2020,03,29,12,50,7.30
2020,03,29,12,51,7.30
2020,03,29,12,52,7.20
2020,03,29,12,53,7.20
2020,03,29,12,54,7.20
2020,03,29,12,55,7.10
2020,03,29,12,56,7.10
2020,03,29,12,57,7.00
2020,03,29,12,58,7.00
2020,03,29,12,59,7.00
2020,03,29,13,00,6.90
2020,03,29,13,01,6.90
2020,03,29,13,02,6.80
2020,03,29,13,03,6.80
2020,03,29,13,04,6.80
2020,03,29,13,05,6.80
2020,03,29,13,06,6.70
2020,03,29,13,07,6.70
2020,03,29,13,08,6.70
2020,03,29,13,09,6.60
2020,03,29,13,10,6.60
2020,03,29,13,11,6.60
2020,03,29,13,12,6.60
2020,03,29,13,13,6.60
2020,03,29,13,14,6.60
2020,03,29,13,15,6.60
2020,03,29,13,16,6.60
2020,03,29,13,17,6.60
2020,03,29,13,18,6.50
2020,03,29,13,19,6.40
2020,03,29,13,20,6.40
2020,03,29,13,21,6.40
2020,03,29,13,22,6.40
2020,03,29,13,23,6.40
2020,03,29,13,24,6.40
2020,03,29,13,25,6.50
2020,03,29,13,26,6.60
2020,03,29,13,27,6.60
2020,03,29,13,28,6.60
2020,03,29,13,29,6.60
2020,03,29,13,30,6.60
2020,03,29,13,31,6.60
2020,03,29,13,32,6.70
2020,03,29,13,33,6.70
2020,03,29,13,34,6.80
2020,03,29,13,35,6.80
2020,03,29,13,36,6.80
2020,03,29,13,37,6.80
2020,03,29,13,38,6.80
2020,03,29,13,39,6.90
2020,03,29,13,40,6.90
2020,03,29,13,41,6.90
2020,03,29,13,42,6.90
2020,03,29,13,43,7.00
2020,03,29,13,44,7.00
2020,03,29,13,45,7.00
2020,03,29,13,46,7.00
2020,03,29,13,47,7.00
2020,03,29,13,48,7.00
2020,03,29,13,49,7.00
2020,03,29,13,50,7.10
2020,03,29,13,51,7.10
2020,03,29,13,52,7.20
2020,03,29,13,53,7.30
2020,03,29,13,54,7.30
2020,03,29,13,55,7.30
2020,03,29,13,56,7.30
2020,03,29,13,57,7.30
2020,03,29,13,58,7.30
2020,03,29,13,59,7.30
2020,03,29,14,00,7.30
2020,03,29,14,01,7.30
2020,03,29,14,02,7.30
2020,03,29,14,03,7.30
2020,03,29,14,04,7.30
2020,03,29,14,05,7.30
2020,03,29,14,06,7.30
2020,03,29,14,07,7.30
2020,03,29,14,08,7.30
2020,03,29,14,09,7.30
2020,03,29,14,10,7.20
2020,03,29,14,11,7.20
2020,03,29,14,12,7.10
2020,03,29,14,13,7.10
2020,03,29,14,14,7.00
2020,03,29,14,15,7.00
2020,03,29,14,16,7.00
2020,03,29,14,17,7.00
2020,03,29,14,18,6.90
2020,03,29,14,19,6.90
2020,03,29,14,20,6.90
2020,03,29,14,21,6.90
2020,03,29,14,22,6.80
2020,03,29,14,23,6.80
2020,03,29,14,24,6.80
2020,03,29,14,25,6.80
2020,03,29,14,26,6.80
2020,03,29,14,27,6.80
2020,03,29,14,28,6.80
2020,03,29,14,29,6.80
2020,03,29,14,30,6.80
2020,03,29,14,31,6.80
2020,03,29,14,32,6.80
2020,03,29,14,33,6.80
2020,03,29,14,34,6.80
2020,03,29,14,35,6.80
2020,03,29,14,36,6.80
2020,03,29,14,37,6.90
2020,03,29,14,38,6.90
2020,03,29,14,39,7.00
2020,03,29,14,40,7.00
2020,03,29,14,41,7.00
2020,03,29,14,42,7.10
2020,03,29,14,43,7.10
2020,03,29,14,44,7.10
2020,03,29,14,45,7.10
2020,03,29,14,46,7.20
2020,03,29,14,47,7.20
2020,03,29,14,48,7.20
2020,03,29,14,49,7.20
2020,03,29,14,50,7.20
2020,03,29,14,51,7.20
2020,03,29,14,52,7.20
2020,03,29,14,53,7.20
2020,03,29,14,54,7.20
2020,03,29,14,55,7.20
2020,03,29,14,56,7.20
2020,03,29,14,57,7.20
2020,03,29,14,58,7.30
2020,03,29,14,59,7.30
2020,03,29,15,00,7.30
2020,03,29,15,01,7.30
2020,03,29,15,02,7.30
2020,03,29,15,03,7.30
2020,03,29,15,04,7.30
2020,03,29,15,05,7.30
2020,03,29,15,06,7.30
2020,03,29,15,07,7.40
2020,03,29,15,08,7.40
2020,03,29,15,09,7.40
2020,03,29,15,10,7.40
2020,03,29,15,11,7.40
2020,03,29,15,12,7.40
2020,03,29,15,13,7.40
2020,03,29,15,14,7.40
2020,03,29,15,15,7.40
2020,03,29,15,16,7.40
2020,03,29,15,17,7.40
2020,03,29,15,18,7.40
2020,03,29,15,19,7.40
2020,03,29,15,20,7.30
2020,03,29,15,21,7.30
2020,03,29,15,22,7.30
2020,03,29,15,23,7.30
2020,03,29,15,24,7.30
2020,03,29,15,25,7.30
2020,03,29,15,26,7.30
2020,03,29,15,27,7.30
2020,03,29,15,28,7.30
2020,03,29,15,29,7.30
2020,03,29,15,30,7.30
2020,03,29,15,31,7.40
2020,03,29,15,32,7.40
2020,03,29,15,33,7.40
2020,03,29,15,34,7.50
2020,03,29,15,35,7.50
2020,03,29,15,36,7.50
2020,03,29,15,37,7.60
2020,03,29,15,38,7.60
2020,03,29,15,39,7.70
2020,03,29,15,40,7.70
2020,03,29,15,41,7.80
2020,03,29,15,42,7.80
2020,03,29,15,43,7.80
2020,03,29,15,44,7.90
2020,03,29,15,45,7.90
2020,03,29,15,46,7.90
2020,03,29,15,47,7.90
2020,03,29,15,48,8.00
2020,03,29,15,49,8.00
2020,03,29,15,50,8.00
2020,03,29,15,51,8.10
2020,03,29,15,52,8.10
2020,03,29,15,53,8.10
2020,03,29,15,54,8.20
2020,03,29,15,55,8.20
2020,03,29,15,56,8.20
2020,03,29,15,57,8.20
2020,03,29,15,58,8.20
2020,03,29,15,59,8.20
2020,03,29,16,00,8.20
2020,03,29,16,01,8.20
2020,03,29,16,02,8.20
2020,03,29,16,03,8.20
2020,03,29,16,04,8.20
2020,03,29,16,05,8.20
2020,03,29,16,06,8.20
2020,03,29,16,07,8.20
2020,03,29,16,08,8.10
2020,03,29,16,09,8.10
2020,03,29,16,10,8.10
2020,03,29,16,11,8.10
2020,03,29,16,12,8.10
2020,03,29,16,13,8.10
2020,03,29,16,14,8.10
2020,03,29,16,15,8.10
2020,03,29,16,16,8.10
2020,03,29,16,17,8.10
2020,03,29,16,18,8.10
2020,03,29,16,19,8.10
2020,03,29,16,20,8.10
2020,03,29,16,21,8.00
2020,03,29,16,22,8.00
2020,03,29,16,23,8.00
2020,03,29,16,24,8.00
2020,03,29,16,25,8.00
2020,03,29,16,26,8.00
2020,03,29,16,27,8.00
2020,03,29,16,28,8.00
2020,03,29,16,29,8.00
2020,03,29,16,30,8.00
2020,03,29,16,31,8.00
2020,03,29,16,32,8.00
2020,03,29,16,33,8.00
2020,03,29,16,34,8.00
2020,03,29,16,35,8.00
2020,03,29,16,36,8.00
2020,03,29,16,37,8.00
2020,03,29,16,38,8.00
2020,03,29,16,39,8.00
2020,03,29,16,40,8.00
2020,03,29,16,41,8.00
2020,03,29,16,42,8.00
2020,03,29,16,43,8.10
2020,03,29,16,44,8.10
2020,03,29,16,45,8.00
2020,03,29,16,46,8.10
2020,03,29,16,47,8.10
2020,03,29,16,48,8.10
2020,03,29,16,49,8.10
2020,03,29,16,50,8.10
2020,03,29,16,51,8.10
2020,03,29,16,52,8.10
2020,03,29,16,53,8.10
2020,03,29,16,54,8.10
2020,03,29,16,55,8.10
2020,03,29,16,56,8.10
2020,03,29,16,57,8.10
2020,03,29,16,58,8.10
2020,03,29,16,59,8.10
2020,03,29,17,00,8.10
2020,03,29,17,01,8.10
2020,03,29,17,02,8.10
2020,03,29,17,03,8.10
2020,03,29,17,04,8.10
2020,03,29,17,05,8.10
2020,03,29,17,06,8.10
2020,03,29,17,07,8.10
2020,03,29,17,08,8.10
2020,03,29,17,09,8.10
2020,03,29,17,10,8.10
2020,03,29,17,11,8.10
2020,03,29,17,12,8.10
2020,03,29,17,13,8.10
2020,03,29,17,14,8.10
2020,03,29,17,15,8.00
2020,03,29,17,16,8.00
2020,03,29,17,17,8.00
2020,03,29,17,18,8.00
2020,03,29,17,19,8.00
2020,03,29,17,20,8.00
2020,03,29,17,21,8.00
2020,03,29,17,22,8.00
2020,03,29,17,23,8.00
2020,03,29,17,24,8.00
2020,03,29,17,25,8.00
2020,03,29,17,26,8.00
2020,03,29,17,27,8.00
2020,03,29,17,28,7.90
2020,03,29,17,29,7.90
2020,03,29,17,30,7.90
2020,03,29,17,31,7.90
2020,03,29,17,32,7.80
2020,03,29,17,33,7.80
2020,03,29,17,34,7.80
2020,03,29,17,35,7.80
2020,03,29,17,36,7.80
2020,03,29,17,37,7.70
2020,03,29,17,38,7.70
2020,03,29,17,39,7.70
2020,03,29,17,40,7.70
2020,03,29,17,41,7.60
2020,03,29,17,42,7.60
2020,03,29,17,43,7.60
2020,03,29,17,44,7.60
2020,03,29,17,45,7.50
2020,03,29,17,46,7.50